Location: Le Rocchette
(44.3500°N, 7.8333°E)
Time: 01:56:02
(UTC+00:00)

Meteor 2-20 Rocket - Pass Details

Date: 17 November 2019
Orbit: 941 x 959 km, 82.5° (Epoch: 15 December)

Event Time Altitude Azimuth Distance (km) Brightness Sun altitude
Rises 04:39:09 0° 348° (NNW) 3,651 7.3 -19.1°
Reaches altitude 10° 04:41:41 10° 345° (NNW) 2,701 6.6 -18.7°
Maximum altitude 04:47:45 61° 267° (W) 1,085 4.4 -17.6°
Drops below altitude 10° 04:53:46 10° 188° (S) 2,680 6.8 -16.5°
Sets 04:56:17 0° 185° (S) 3,620 7.6 -16.1°
